CZ-6A DEB, 56596

Orbit data source: Space-Track

CZ-6A DEB, 56596 is space debris in SSO originally from a launch on Fri, 11 Nov 2022 UTC launched from the Taiyaun Space Center, China (TSC). Debris objects in space refer to the collection of defunct objects orbiting the Earth. Examples of debris include non-operational satellites, rocket bodies, and fragments generated from explosions, collisions, or faulty payload assembly.

Loading next visibility...
Identifier
56596, 2022-151ADU
Orbit
SSO
Country
Flag of CNCN / PRC
Related business
Manufacturer
SAST
Mission
Spacecraft
Bus & Motor
Unknown
Mass
Unknown
Launch date (UTC)
2022-11-11 (3 years ago)
Launch vehicle
Unknown
Launch site
Taiyaun Space Center, China (TSC)
Object type
Payload
Rocket body
Debris
Shape & HBR
Unknown shape, 0.1 m
Radar Cross Section
Small (<0.1 m²)

Expand to show TLE details & history
Last TLE update: 9 hours ago

TLE from 9 hours ago
0 CZ-6A DEB
1 56596U 22151ADU 26130.48194154  .00002046  00000-0  94985-3 0  9990
2 56596  98.8118 142.0212 0036813  46.2349 314.1865 14.21429542168848
Epoch: 2026-05-10T11:33Z
TLE epoch observation values (Epoch: 2026-05-10T11:33:59.749Z)
Latitude
0.00006°
Longitude
100.23784°
Altitude
805.011 km
Speed
7.46 km/s
True Right ascension
09h 28m 05s
True Declination
0° 00' 00"
Sunlit
Object was in daylight at epoch
Visualization orbit readout
Latitude
Unknown
Longitude
Unknown
Altitude
Unknown
Speed
Unknown
Apparent Right ascension
Unknown
Apparent Declination
Unknown
Sunlit
N/A
Visualization observer readout
Local Sidereal Time
04:33:34
Azimuth
Unknown
Elevation
Unknown
Doppler factor
Unknown
Orbital elements
Apogee altitude
844.174 km
Perigee altitude
791.194 km
Semi-major axis
7,195.821 km
Eccentricity
0.00368
Inclination
98.8118°
RAAN
142.0212°
Arg. of periapsis
46.2349°
True anomaly
313.88303°
Mean anomaly
314.1865°
Eccentric anomaly
314.03486°
Mean motion
3.55568 °/min
Orbital period
101.25 mins
BSTAR
0.00094985
Loading maneuver chart data...
Computing Atmospheric mass density...
Loading historical data...
Loading historical data...
Loading historical data...
Loading historical data...
Loading historical data...
Loading historical data...
Loading historical data...

Documentation

Showing up to 5 results
|